Goodland, KS

6:03 AM MDT on April 26, 2017 (GMT -0600)
Renner-Goodland Municipal

Weather History for KGLD - January, 2013

Change the Weather History Date:

Friday, January 4, 2013

  Actual Average Record
Temperature  
Mean Temperature 26 °F 30 °F  
Max Temperature 41 °F 42 °F 70 °F (2001)
Min Temperature 11 °F 17 °F -19 °F (1959)
Degree Days  
Heating Degree Days 39 35  
Month to date heating degree days 177 142  
Since 1 July heating degree days 2445 2549  
Cooling Degree Days 0 0  
Month to date cooling degree days 0 0  
Year to date cooling degree days 0 0  
Moisture  
Dew Point 8 °F    
Average Humidity 49    
Maximum Humidity 71    
Minimum Humidity 27    
Precipitation  
Precipitation 0.00 in 0.01 in 0.23 in (1963)
Month to date precipitation 0.01 0.05  
Year to date precipitation 0.01 0.05  
Snow  
Snow 0.00 in 0.20 in - ()
Month to date snowfall 0.3 0.7  
Since 1 July snowfall 10.3 13.4  
Snow Depth 1.00 in    
Sea Level Pressure  
Sea Level Pressure 30.22 in    
Wind  
Wind Speed 9 mph (SW)    
Max Wind Speed 15 mph    
Max Gust Speed 17 mph    
Visibility 10 miles    
Events      
T = Trace of Precipitation, MM = Missing Value Source: NWS Daily Summary

Daily Weather History Graph

Daily Weather History Graph

Search for Another Location

Airport or City:

Trip Planner

Search our weather history database for the weather conditions in past years. The results will help you decide how hot, cold, wet, or windy it might be!

Date:

Astronomy

Jan. 04, 2013 Rise Set
Actual Time 7:07 AM MST 4:37 PM MST
Civil Twilight 6:37 AM MST 5:07 PM MST
Nautical Twilight 6:03 AM MST 5:40 PM MST
Astronomical Twilight 5:31 AM MST 6:13 PM MST
Moon No Moon Rise 10:53 AM MST (1/4)
Length of Visible Light 10h 29m
Length of Day
9h 30m
Waning Gibbous, 54% of the Moon is Illuminated
Jan 4
Waning Gibbous
Jan 4
Last Quarter
Jan 11
New
Jan 18
First Quarter
Jan 26
Full

Hourly Weather History & Observations

Time (MST) Temp. Windchill Dew Point Humidity Pressure Visibility Wind Dir Wind Speed Gust Speed Precip Events Conditions
12:53 AM 12.0 °F -2.7 °F 1.9 °F 64% 30.34 in 10.0 mi WSW 12.7 mph - N/A   Clear
1:53 AM 10.9 °F -2.6 °F 1.9 °F 67% 30.33 in 10.0 mi WSW 10.4 mph - N/A   Clear
2:53 AM 12.9 °F -0.9 °F 1.9 °F 62% 30.32 in 10.0 mi West 11.5 mph - N/A   Clear
3:53 AM 12.9 °F -0.2 °F 1.9 °F 62% 30.30 in 10.0 mi WSW 10.4 mph - N/A   Clear
4:53 AM 12.2 °F -2.5 °F 1.4 °F 62% 30.18 in 10.0 mi West 12.7 mph - N/A   Clear
5:53 AM 15.8 °F 2.7 °F 1.4 °F 53% 30.18 in 10.0 mi West 11.5 mph - N/A   Clear
6:53 AM 12.0 °F -0.4 °F 1.9 °F 64% 30.35 in 10.0 mi WSW 9.2 mph - N/A   Clear
7:53 AM 16.0 °F 3.6 °F 3.0 °F 57% 30.35 in 10.0 mi West 10.4 mph - N/A   Clear
8:53 AM 24.1 °F 14.4 °F 6.1 °F 46% 30.32 in 10.0 mi WSW 9.2 mph - N/A   Clear
9:53 AM 28.0 °F 20.0 °F 10.9 °F 49% 30.31 in 10.0 mi NW 8.1 mph - N/A   Clear
10:53 AM 33.1 °F - 12.9 °F 43% 30.29 in 10.0 mi Calm Calm - N/A   Clear
11:53 AM 37.9 °F - 9.0 °F 30% 30.23 in 10.0 mi Calm Calm - N/A   Clear
12:53 PM 39.9 °F - 9.0 °F 28% 30.19 in 10.0 mi Calm Calm - N/A   Clear
1:53 PM 39.9 °F 36.7 °F 12.0 °F 32% 30.18 in 10.0 mi SSE 4.6 mph - N/A   Clear
2:53 PM 37.9 °F 31.5 °F 15.1 °F 39% 30.17 in 10.0 mi South 9.2 mph - N/A   Clear
3:53 PM 34.0 °F 28.0 °F 18.0 °F 52% 30.17 in 10.0 mi South 6.9 mph - N/A   Clear
4:53 PM 27.0 °F 19.5 °F 12.9 °F 56% 30.18 in 10.0 mi South 6.9 mph - N/A   Clear
5:53 PM 19.9 °F 11.1 °F 10.9 °F 68% 30.20 in 10.0 mi South 6.9 mph - N/A   Clear
6:53 PM 21.9 °F 11.0 °F 14.0 °F 72% 30.19 in 10.0 mi South 10.4 mph - N/A   Clear
7:53 PM 25.0 °F 14.8 °F 12.0 °F 58% 30.15 in 10.0 mi SW 10.4 mph - N/A   Clear
8:53 PM 21.0 °F 9.3 °F 10.9 °F 65% 30.13 in 10.0 mi SW 11.5 mph - N/A   Clear
9:53 PM 19.0 °F 7.5 °F 9.0 °F 65% 30.13 in 10.0 mi WSW 10.4 mph - N/A   Clear
10:53 PM 18.0 °F 6.1 °F 8.1 °F 65% 30.10 in 10.0 mi West 10.4 mph - N/A   Clear
11:53 PM 19.0 °F 7.5 °F 9.0 °F 65% 30.07 in 10.0 mi West 10.4 mph - N/A   Clear